Osceola, WI

9:56 AM CDT on September 24, 2017 (GMT -0500)
Simenstad Municipal

Weather History for KOEO - July, 2013

Change the Weather History Date:

Friday, July 5, 2013

  Actual Average (KANE) Record (KANE)
Temperature  
Mean Temperature 75 °F -  
Max Temperature 85 °F 77 °F 89 °F (2012)
Min Temperature 65 °F 60 °F 50 °F (2001)
Cooling Degree Days 10    
Growing Degree Days 25 (Base 50)    
Moisture  
Dew Point 61 °F    
Average Humidity 59    
Maximum Humidity 77    
Minimum Humidity 40    
Precipitation  
Precipitation 0.00 in - - ()
Sea Level Pressure  
Sea Level Pressure 29.90 in    
Wind  
Wind Speed 10 mph (South)    
Max Wind Speed 20 mph    
Max Gust Speed 28 mph    
Visibility 10 miles    
Events      
Averages and records for this station are not official NWS values.
T = Trace of Precipitation, MM = Missing Value Source: NWS Daily Summary

Daily Weather History Graph

Daily Weather History Graph

Search for Another Location

Airport or City:

Trip Planner

Search our weather history database for the weather conditions in past years. The results will help you decide how hot, cold, wet, or windy it might be!

Date:

Astronomy

Jul. 05, 2013 Rise Set
Actual Time 5:29 AM CDT 9:01 PM CDT
Civil Twilight 4:52 AM CDT 9:38 PM CDT
Nautical Twilight 4:02 AM CDT 10:27 PM CDT
Astronomical Twilight 2:58 AM CDT 11:31 PM CDT
Moon 3:32 AM CDT (7/5) 6:53 PM CDT (7/5)
Length of Visible Light 16h 46m
Length of Day
15h 31m
Waning Crescent, 6% of the Moon is Illuminated
Jul 5
Waning Crescent
Jul 8
New
Jul 15
First Quarter
Jul 22
Full
Jul 29
Last Quarter

Hourly Weather History & Observations

Time (CDT) Temp. Heat Index Dew Point Humidity Pressure Visibility Wind Dir Wind Speed Gust Speed Precip Events Conditions
12:15 AM 70.0 °F - 59.4 °F 69% 29.94 in 10.0 mi SSE 8.1 mph - N/A   Clear
12:35 AM 69.4 °F - 59.4 °F 70% 29.94 in 10.0 mi SSE 8.1 mph - N/A   Clear
12:55 AM 69.1 °F - 59.2 °F 71% 29.94 in 10.0 mi SSE 8.1 mph - N/A   Clear
1:15 AM 69.1 °F - 59.2 °F 71% 29.94 in 10.0 mi SSE 8.1 mph - N/A   Clear
1:35 AM 69.1 °F - 59.0 °F 70% 29.94 in 10.0 mi South 8.1 mph - N/A   Clear
1:55 AM 69.3 °F - 58.8 °F 69% 29.94 in 10.0 mi South 5.8 mph - N/A   Clear
2:15 AM 68.4 °F - 58.8 °F 71% 29.94 in 10.0 mi South 4.6 mph - N/A   Clear
2:35 AM 68.9 °F - 58.5 °F 69% 29.94 in 10.0 mi South 5.8 mph - N/A   Clear
2:55 AM 68.0 °F - 58.3 °F 71% 29.94 in 10.0 mi South 5.8 mph - N/A   Clear
3:15 AM 68.2 °F - 58.3 °F 71% 29.94 in 10.0 mi South 8.1 mph - N/A   Clear
3:35 AM 68.0 °F - 58.3 °F 71% 29.94 in 10.0 mi South 6.9 mph - N/A   Clear
3:55 AM 67.1 °F - 58.3 °F 73% 29.94 in 10.0 mi South 5.8 mph - N/A   Clear
4:15 AM 67.1 °F - 58.3 °F 73% 29.94 in 10.0 mi South 6.9 mph - N/A   Clear
4:35 AM 66.6 °F - 58.3 °F 75% 29.94 in 10.0 mi SSE 6.9 mph - N/A   Clear
4:55 AM 66.6 °F - 58.3 °F 75% 29.95 in 10.0 mi South 4.6 mph - N/A   Clear
5:15 AM 65.8 °F - 58.1 °F 76% 29.95 in 10.0 mi South 4.6 mph - N/A   Clear
5:35 AM 65.7 °F - 58.1 °F 77% 29.95 in 10.0 mi SSE 4.6 mph - N/A   Clear
5:55 AM 65.8 °F - 58.1 °F 76% 29.95 in 10.0 mi SSE 4.6 mph - N/A   Clear
6:15 AM 66.6 °F - 58.3 °F 75% 29.95 in 10.0 mi South 3.5 mph - N/A   Clear
6:35 AM 67.3 °F - 58.6 °F 74% 29.95 in 10.0 mi SSE 5.8 mph - N/A   Clear
6:55 AM 68.4 °F - 59.0 °F 72% 29.95 in 10.0 mi SSE 9.2 mph - N/A   Scattered Clouds
7:15 AM 68.9 °F - 59.0 °F 71% 29.94 in 10.0 mi SSE 8.1 mph - N/A   Scattered Clouds
7:35 AM 69.8 °F - 59.7 °F 70% 29.94 in 10.0 mi SSE 10.4 mph - N/A   Clear
7:55 AM 71.4 °F - 59.7 °F 66% 29.94 in 10.0 mi South 10.4 mph 17.3 mph N/A   Clear
8:15 AM 72.7 °F - 60.1 °F 64% 29.94 in 10.0 mi SSE 11.5 mph - N/A   Clear
8:35 AM 74.3 °F - 60.1 °F 61% 29.94 in 10.0 mi South 12.7 mph - N/A   Scattered Clouds
8:55 AM 74.5 °F - 59.9 °F 60% 29.94 in 10.0 mi South 15.0 mph 20.7 mph N/A   Mostly Cloudy
9:15 AM 75.2 °F - 59.7 °F 58% 29.94 in 10.0 mi South 15.0 mph 18.4 mph N/A   Mostly Cloudy
9:35 AM 77.0 °F - 60.3 °F 56% 29.93 in 10.0 mi SSE 19.6 mph 23.0 mph N/A   Mostly Cloudy
9:55 AM 77.0 °F - 61.2 °F 58% 29.92 in 10.0 mi SSE 15.0 mph 20.7 mph N/A   Mostly Cloudy
10:15 AM 77.9 °F - 61.0 °F 56% 29.91 in 10.0 mi SSE 15.0 mph 24.2 mph N/A   Scattered Clouds
10:35 AM 79.2 °F - 61.3 °F 54% 29.91 in 10.0 mi SSE 17.3 mph 23.0 mph N/A   Clear
10:55 AM 80.2 °F 81.2 °F 61.3 °F 52% 29.90 in 10.0 mi SSE 16.1 mph 23.0 mph N/A   Clear
11:15 AM 81.5 °F 82.2 °F 61.2 °F 50% 29.90 in 10.0 mi South 18.4 mph 24.2 mph N/A   Clear
11:35 AM 81.1 °F 81.8 °F 60.3 °F 49% 29.90 in 10.0 mi South 18.4 mph 26.5 mph N/A   Clear
11:55 AM 82.8 °F 83.1 °F 60.6 °F 47% 29.90 in 10.0 mi South 13.8 mph 25.3 mph N/A   Clear
12:15 PM 82.9 °F 83.7 °F 62.2 °F 49% 29.90 in 10.0 mi South 15.0 mph 24.2 mph N/A   Clear
12:35 PM 83.8 °F 84.7 °F 62.6 °F 49% 29.90 in 10.0 mi South 17.3 mph 27.6 mph N/A   Clear
12:55 PM 83.3 °F 83.5 °F 60.8 °F 46% 29.90 in 10.0 mi South 16.1 mph 27.6 mph N/A   Clear
1:15 PM 83.3 °F 83.7 °F 61.2 °F 47% 29.90 in 10.0 mi South 13.8 mph 23.0 mph N/A   Clear
1:35 PM 85.3 °F 85.4 °F 61.0 °F 44% 29.89 in 10.0 mi South 15.0 mph - N/A   Clear
1:55 PM 84.9 °F 85.2 °F 61.2 °F 45% 29.89 in 10.0 mi South 19.6 mph 24.2 mph N/A   Scattered Clouds
2:15 PM 83.7 °F 83.8 °F 60.3 °F 45% 29.89 in 10.0 mi South 12.7 mph 21.9 mph N/A   Mostly Cloudy
2:35 PM 84.2 °F 84.8 °F 61.9 °F 47% 29.89 in 10.0 mi South 11.5 mph - N/A   Scattered Clouds
2:55 PM 83.7 °F 84.1 °F 61.7 °F 47% 29.89 in 10.0 mi South 10.4 mph - N/A   Scattered Clouds
3:15 PM 83.7 °F 84.5 °F 62.8 °F 49% 29.88 in 10.0 mi South 8.1 mph - N/A   Scattered Clouds
3:35 PM 83.5 °F 84.7 °F 63.5 °F 51% 29.88 in 10.0 mi South 10.4 mph - N/A   Mostly Cloudy
3:55 PM 82.8 °F 83.6 °F 62.6 °F 50% 29.87 in 10.0 mi South 12.7 mph - N/A   Mostly Cloudy
4:15 PM 82.9 °F 84.0 °F 63.0 °F 51% 29.87 in 10.0 mi South 15.0 mph 18.4 mph N/A   Scattered Clouds
4:35 PM 85.1 °F 84.8 °F 59.9 °F 42% 29.87 in 10.0 mi South 16.1 mph 24.2 mph N/A   Scattered Clouds
4:55 PM 84.7 °F 84.0 °F 58.1 °F 40% 29.87 in 10.0 mi South 18.4 mph 21.9 mph N/A   Scattered Clouds
5:15 PM 84.4 °F 84.6 °F 60.8 °F 45% 29.86 in 10.0 mi SSE 15.0 mph 20.7 mph N/A   Clear
5:35 PM 84.2 °F 84.8 °F 62.2 °F 47% 29.85 in 10.0 mi SSE 15.0 mph 20.7 mph N/A   Clear
5:55 PM 84.4 °F 85.4 °F 63.3 °F 49% 29.85 in 10.0 mi South 16.1 mph - N/A   Clear
6:15 PM 85.1 °F 85.7 °F 62.2 °F 46% 29.85 in 10.0 mi South 12.7 mph 21.9 mph N/A   Scattered Clouds
6:35 PM 84.7 °F 85.2 °F 62.1 °F 46% 29.85 in 10.0 mi South 18.4 mph 23.0 mph N/A   Clear
6:55 PM 83.8 °F 84.5 °F 62.4 °F 48% 29.85 in 10.0 mi South 12.7 mph - N/A   Scattered Clouds
7:15 PM 82.6 °F 83.2 °F 61.9 °F 49% 29.85 in 10.0 mi South 10.4 mph - N/A   Mostly Cloudy
7:35 PM 80.6 °F 82.0 °F 63.7 °F 56% 29.85 in 10.0 mi SSE 8.1 mph - N/A   Mostly Cloudy
7:55 PM 81.5 °F 82.8 °F 63.3 °F 54% 29.86 in 10.0 mi South 11.5 mph - N/A   Mostly Cloudy
8:15 PM 81.0 °F 82.3 °F 63.3 °F 55% 29.86 in 10.0 mi South 8.1 mph - N/A   Overcast
8:35 PM 80.2 °F 81.4 °F 62.4 °F 54% 29.87 in 10.0 mi South 11.5 mph - N/A   Scattered Clouds
8:55 PM 79.3 °F - 62.1 °F 55% 29.87 in 10.0 mi South 11.5 mph - N/A   Clear
9:15 PM 78.8 °F - 61.7 °F 56% 29.87 in 10.0 mi SSE 9.2 mph - N/A   Clear
9:35 PM 77.0 °F - 62.1 °F 60% 29.87 in 10.0 mi SSE 10.4 mph 16.1 mph N/A   Clear
9:55 PM 76.6 °F - 61.5 °F 59% 29.87 in 10.0 mi SSE 10.4 mph - N/A   Clear
10:15 PM 76.5 °F - 61.0 °F 59% 29.88 in 10.0 mi SSE 10.4 mph - N/A   Clear
10:35 PM 76.1 °F - 60.8 °F 59% 29.88 in 10.0 mi South 11.5 mph - N/A   Clear
10:55 PM 76.1 °F - 60.6 °F 59% 29.87 in 10.0 mi South 10.4 mph 16.1 mph N/A   Clear
11:15 PM 76.1 °F - 60.3 °F 58% 29.88 in 10.0 mi South 11.5 mph - N/A   Clear
11:35 PM 76.1 °F - 60.3 °F 58% 29.89 in 10.0 mi South 12.7 mph 18.4 mph N/A   Clear
11:55 PM 76.1 °F - 60.4 °F 58% 29.90 in 10.0 mi South 10.4 mph - N/A   Clear